Regional Weather Roundup
Issued by NWS Cleveland, OH

Home | Current Version | Previous Version | Text Only | Print | Product List | Glossary On
Versions: 1 2 3 4 5 6 7 8 9 10 11 12 13 14 15 16 17 18 19 20 21 22 23 24 25 26 27 28 29 30 31 32 33 34 35 36 37 38 39 40 41 42 43 44 45 46 47 48 49 50
000
ASUS41 KCLE 291100
RWRCLE
OHIO REGIONAL WEATHER ROUNDUP
NATIONAL WEATHER SERVICE WILMINGTON, OH
600 AM EST MON DEC 29 2014

NOTE: "FAIR" INDICATES FEW OR NO CLOUDS BELOW 12,000 FEET WITH NO
SIGNIFICANT WEATHER AND/OR OBSTRUCTIONS TO VISIBILITY.

OHZ001>008-015>018-024>027-034-035-043-044-291200-
   NORTHWEST OHIO

CITY           SKY/WX    TMP DP  RH WIND       PRES   REMARKS
DEFIANCE       CLEAR     22  18  85 CALM      30.25F FOG
FINDLAY        CLEAR     24  19  81 N6        30.23S WCI  17
TOLEDO EXPRESS CLEAR     19  17  92 CALM      30.25F
TOLEDO METCALF CLEAR     23  17  78 CALM      30.26F
LIMA           CLEAR     26  21  81 N5        30.22S WCI  20
$$

OHZ009>014-019>023-028>033-038-089-291200-
   NORTHEAST OHIO

CITY           SKY/WX    TMP DP  RH WIND       PRES   REMARKS
CLE-HOPKINS    CLOUDY    30  25  81 N5        30.23F WCI  25
CLE-LAKEFRONT  CLOUDY    33  24  69 N9        30.21F WCI  25
CUY CO. ARPT   NOT AVBL
LORAIN-ELYRIA  CLOUDY    29  24  82 N6        30.22F WCI  23
ASHTABULA      CLOUDY    31  25  78 CALM      30.20S
AKRON-CANTON   PTCLDY    24  22  91 NW5       30.18F WCI  18
WOOSTER        NOT AVBL
MANSFIELD      CLEAR     21  19  92 NW7       30.19S WCI  12
YOUNGSTOWN     MOCLDY    30  26  85 CALM      30.17F
$$

OHZ042-051>053-060>062-070>072-077>081-291200-
  SOUTHWEST OHIO

CITY           SKY/WX    TMP DP  RH WIND       PRES   REMARKS
CINC-COVINGTON CLOUDY    30  23  75 N9        30.22R WCI  22
CINC-LUNKEN    CLOUDY    30  27  88 N3        30.26R
HAMILTON       CLOUDY    27  25  92 CALM      30.26R
DAYTON         NOT AVBL
WRIGHT-PAT AFB CLEAR     24  22  93 N5        30.22S WCI  18
DAYTON GENERAL CLEAR     25  23  92 N7        30.21R FOG     WCI  17
WILMINGTON     CLOUDY    28  24  85 N8        30.20R FOG     WCI  20
$$

OHZ036-037-039>041-045>050-054>059-063>069-073>076-082>088-291200-
  CENTRAL AND SOUTHEAST OHIO

CITY           SKY/WX    TMP DP  RH WIND       PRES   REMARKS
COLUMBUS       CLEAR     26  23  88 N6        30.21S WCI  19
OSU AIRPORT    CLEAR     23  21  92 N6        30.21S FOG     WCI  16
BOLTON FIELD   NOT AVBL
RICKENBACK AFB NOT AVBL
NEWARK         CLEAR     27  23  85 CALM      30.20R
MARION         CLEAR     24  20  84 N7        30.21S FOG     WCI  16
LANCASTER      CLOUDY    29  26  89 CALM      30.21R
ZANESVILLE     CLOUDY    27  24  89 CALM      30.20R
NEW PHILLY     CLEAR     27  25  92 CALM      30.21S
$$


USA.gov is the U.S. government's official web portal to all federal, state and local government web resources and services.